Вернуться в каталог

NILESAT

АктивенСвязьGEO
NORAD 25311·PAYLOAD·🇪🇬 Egypt

Запущен Apr 28, 1998 с Guiana Space Centre

Loading…

TLE

СвежийSource: Space-Track

Эпоха: Sep 14, 2026, 13:54 UTC

1 25311U 98024A   26257.57926103 -.00000120  00000-0  00000-0 0  9994
2 25311  10.8936  50.4433 0021529 292.4183 240.4664  0.97394515 51216

Отслеживайте NILESAT в реальном времени с AllMySat

Download on the App Store